Location: Lone Wolf Observatory
(41.0360°N, 89.2260°W)
Time: 17:40:51
(UTC-05:00)

Amateur Radio Satellites - All Passes

Search period start: 30 July 2016 17:10
Search period end: 31 July 2016 17:10
Location: Lone Wolf Observatory, 41.0360°N, 89.2260°W

Satellite Date Start Highest point End Downlink Frequencies (MHz)
Time Altitude Azimuth
Cubesat XI-IV 30 Jul 17:17:47 17:21:49 22° 63° (ENE) 17:25:52 437.490
HORYU 2 30 Jul 17:19:08 17:23:35 67° 258° (WSW) 17:28:05 437.375
BEESAT 2 30 Jul 17:21:02 17:23:33 16° 111° (ESE) 17:26:05 435.950
STARS 30 Jul 17:25:45 17:30:14 85° 103° (ESE) 17:34:40 437.465
PHONESAT 2.4 30 Jul 17:28:24 17:31:28 78° 174° (S) 17:34:33 2401.200-2431.200
AO-7 30 Jul 17:35:25 17:40:58 19° 269° (W) 17:46:34 29.400- 29.500
CUTE-I 30 Jul 17:39:17 17:44:04 34° 67° (ENE) 17:48:51 437.470
BRITE-PL 30 Jul 17:43:47 17:47:47 50° 73° (ENE) 17:51:53 437.365/2234.400
NOAA 15 30 Jul 17:46:27 17:51:30 51° 71° (ENE) 17:56:35 137.62
CUBESAT XI-V 30 Jul 17:52:31 17:56:55 43° 98° (E) 18:01:19 437.345
MOZHAYETS 4 30 Jul 18:00:45 18:04:06 20° 294° (WNW) 18:07:26
DOVE 4 30 Jul 18:01:04 18:03:52 17° 63° (ENE) 18:06:45 437.250
RS-15 30 Jul 18:11:08 18:19:29 22° 262° (W) 18:27:47 29.354- 29.394
PCSat 30 Jul 18:20:56 18:25:59 41° 112° (ESE) 18:31:04 145.827
GOMX 1 30 Jul 18:25:57 18:30:06 64° 74° (ENE) 18:34:29 467.674
LilacSat-2 30 Jul 18:32:23 18:36:15 77° 258° (WSW) 18:40:10 437.200
KKS-1 30 Jul 18:37:16 18:37:54 10° 300° (WNW) 18:38:32 437.445
BEESAT 3 30 Jul 18:43:34 18:47:07 32° 309° (NW) 18:50:43 437.485
NOAA 18 30 Jul 18:47:23 18:52:51 61° 258° (WSW) 18:58:21 137.9125
HO-68 30 Jul 18:53:13 18:59:15 30° 61° (ENE) 19:05:19 435.675
Cubesat XI-IV 30 Jul 18:56:18 19:01:31 50° 260° (W) 19:06:46 437.490
BEESAT 2 30 Jul 18:57:16 19:01:03 42° 307° (NW) 19:04:52 435.950
O/OREOS (USA 219) 30 Jul 19:01:05 19:03:08 13° 98° (E) 19:05:10 437.305
PHONESAT 2.4 30 Jul 19:04:52 19:07:55 64° 191° (S) 19:10:59 2401.200-2431.200
STARS 30 Jul 19:05:34 19:05:53 10° 300° (WNW) 19:06:11 437.465
YUBILEINY 30 Jul 19:17:52 19:24:28 23° 64° (ENE) 19:31:00 435.215
STRAND 1 30 Jul 19:18:35 19:22:23 21° 93° (E) 19:26:08 437.568
CUTE-I 30 Jul 19:19:20 19:24:04 31° 264° (W) 19:28:50 437.470
CINEMA 3 30 Jul 19:19:56 19:24:01 32° 69° (ENE) 19:28:17 145.822/145.860
BRITE-PL 30 Jul 19:25:01 19:26:40 12° 270° (W) 19:28:21 437.365/2234.400
NOAA 15 30 Jul 19:27:49 19:31:33 20° 267° (W) 19:35:18 137.62
CUBESAT XI-V 30 Jul 19:30:43 19:33:59 19° 295° (WNW) 19:37:15 437.345
CANX-2 30 Jul 19:31:13 19:35:07 36° 71° (ENE) 19:39:02 2200.000
DOVE 4 30 Jul 19:36:55 19:41:06 48° 262° (W) 19:45:34 437.250
CUTE 1.7 + AOD 2 30 Jul 19:43:41 19:47:43 43° 73° (ENE) 19:51:46 437.475
AIST 2 30 Jul 19:53:18 19:56:59 33° 115° (ESE) 20:00:42 435.215
Oscar 11 30 Jul 19:59:00 20:00:04 11° 62° (ENE) 20:01:09 145.826/435.025
CUBEBUG 2 30 Jul 20:00:48 20:04:40 27° 68° (ENE) 20:08:38 437.445
PCSat 30 Jul 20:04:45 20:09:29 30° 310° (NW) 20:14:15 145.827
GOMX 1 30 Jul 20:08:14 20:08:45 10° 272° (W) 20:09:17 467.674
ISS 30 Jul 20:08:56 20:12:08 59° 141° (SE) 20:15:22 145.825
SEEDS 30 Jul 20:15:22 20:19:33 71° 76° (ENE) 20:23:46 437.485
COMPASS 1 30 Jul 20:19:48 20:23:52 54° 74° (ENE) 20:27:56 437.405
Cosmos 2504 30 Jul 20:28:11 20:33:31 19° 62° (ENE) 20:38:37 435.465 / 435.565
DELFI C3 30 Jul 20:36:54 20:37:41 10° 63° (ENE) 20:38:27 145.870
O/OREOS (USA 219) 30 Jul 20:37:36 20:41:59 57° 295° (WNW) 20:46:24 437.305
PRISM 30 Jul 20:39:16 20:41:39 15° 93° (E) 20:44:00 437.425
HO-68 30 Jul 20:39:34 20:46:34 55° 259° (WSW) 20:53:38 435.675
PHONESAT 2.4 30 Jul 20:41:44 20:44:07 21° 207° (SSW) 20:46:30 2401.200-2431.200
Cosmos 2491 30 Jul 20:41:56 20:49:37 37° 85° (E) 20:57:18 435.465 / 435.565
AAUSAT CUBESAT 2 30 Jul 20:44:01 20:48:10 82° 78° (ENE) 20:52:19 437.432
AO-85 30 Jul 20:51:36 20:54:45 18° 41° (NE) 20:57:44 145.980
FUNcube-1 30 Jul 20:54:22 20:58:36 39° 71° (ENE) 21:02:52 145.935
STRAND 1 30 Jul 20:56:54 21:01:46 46° 289° (WNW) 21:06:36 437.568
CINEMA 3 30 Jul 20:57:21 21:01:09 25° 267° (W) 21:05:08 145.822/145.860
ZACube-1 30 Jul 20:57:27 21:01:47 45° 72° (ENE) 21:06:11 437.345
UWE-3 30 Jul 21:05:42 21:10:18 85° 74° (ENE) 21:15:01 435.000/436.395/437.385
CANX-2 30 Jul 21:08:02 21:11:05 19° 267° (W) 21:14:09 2200.000
YUBILEINY 30 Jul 21:13:26 21:22:18 80° 265° (W) 21:31:03 435.215
CUTE 1.7 + AOD 2 30 Jul 21:21:09 21:23:46 16° 268° (W) 21:26:24 437.475
Oscar 11 30 Jul 21:31:14 21:35:34 75° 257° (WSW) 21:39:56 145.826/435.025
AIST 2 30 Jul 21:32:06 21:35:30 25° 313° (NW) 21:38:57 435.215
CUBEBUG 2 30 Jul 21:37:02 21:41:09 31° 264° (W) 21:45:22 437.445
HUMSAT D 30 Jul 21:37:34 21:41:10 27° 69° (ENE) 21:44:47 437.325/437.525
M-CUBED/EXP-1 PRIME 30 Jul 21:44:50 21:48:39 62° 69° (ENE) 21:52:50 437.505
ISS 30 Jul 21:46:06 21:48:47 23° 338° (NNW) 21:51:29 145.825
COMPASS 1 30 Jul 21:58:03 21:59:44 12° 269° (W) 22:01:26 437.405
ANTELSAT 30 Jul 22:01:42 22:03:06 11° 89° (E) 22:04:30 437.575/2403.000
AUBIESAT-1 30 Jul 22:07:19 22:11:12 88° 254° (WSW) 22:15:28 437.475
DELFI C3 30 Jul 22:08:03 22:11:59 64° 259° (W) 22:15:56 145.870
PRISM 30 Jul 22:13:15 22:17:09 43° 288° (WNW) 22:21:02 437.425
Cosmos 2504 30 Jul 22:20:00 22:28:05 84° 264° (W) 22:35:32 435.465 / 435.565
AISAT 30 Jul 22:30:33 22:31:53 11° 61° (ENE) 22:33:15 437.250
AO-85 30 Jul 22:31:21 22:35:35 53° 243° (WSW) 22:39:30 145.980
FUNcube-1 30 Jul 22:31:37 22:34:58 20° 267° (W) 22:38:21 145.935
ZACube-1 30 Jul 22:35:14 22:38:16 17° 268° (W) 22:41:21 437.345
Cosmos 2491 30 Jul 22:37:51 22:46:10 48° 285° (WNW) 22:54:33 435.465 / 435.565
TIGRISAT 30 Jul 22:40:01 22:44:00 28° 95° (E) 22:47:53 435.000
UNISAT 6 30 Jul 22:57:28 23:01:55 46° 99° (E) 23:06:14 437.425
CUBEBUG 1 30 Jul 23:09:04 23:12:50 30° 69° (ENE) 23:16:38 437.445
HUMSAT D 30 Jul 23:13:03 23:16:42 26° 265° (W) 23:20:22 437.325/437.525
YUBILEINY 30 Jul 23:13:12 23:17:31 15° 285° (WNW) 23:21:51 435.215
VELOX 1 30 Jul 23:18:33 23:22:29 33° 70° (ENE) 23:26:28 145.980
ESTCUBE 1 30 Jul 23:18:57 23:23:22 60° 74° (ENE) 23:27:47 437.505/2401.250
M-CUBED/EXP-1 PRIME 30 Jul 23:23:02 23:23:42 10° 267° (W) 23:24:22 437.505
ISS 30 Jul 23:24:31 23:26:07 13° 358° (N) 23:27:43 145.825
ANTELSAT 30 Jul 23:35:43 23:40:18 69° 286° (WNW) 23:44:46 437.575/2403.000
QB50P1 30 Jul 23:40:26 23:43:37 20° 94° (E) 23:46:47 145.935-145.965
POPSAT HIP 1 30 Jul 23:47:05 23:50:33 23° 95° (E) 23:53:59 437.405
DX 1 30 Jul 23:48:33 23:52:44 52° 72° (ENE) 23:56:58 434.975-435.025
UKube-1 30 Jul 23:54:22 23:58:29 47° 72° (ENE) 00:02:38 .
50 SAT 30 Jul 23:57:32 00:01:11 81° 259° (WSW) 00:04:51 437.505
AIST 1 31 Jul 00:00:38 00:04:51 47° 79° (ENE) 00:09:04
AISAT 31 Jul 00:03:22 00:07:45 74° 258° (WSW) 00:12:10 437.250
QB50P2 31 Jul 00:08:37 00:12:44 44° 99° (E) 00:16:48 145.880/145.840
POLYITAN 1 31 Jul 00:11:15 00:15:23 45° 99° (E) 00:19:28 437.675
Cosmos 2504 31 Jul 00:16:17 00:19:58 14° 285° (WNW) 00:23:31 435.465 / 435.565
TIGRISAT 31 Jul 00:16:42 00:20:36 28° 292° (WNW) 00:24:25 435.000
SPROUT 31 Jul 00:19:22 00:23:38 73° 75° (ENE) 00:27:56 437.525
UNISAT 6 31 Jul 00:35:08 00:38:13 18° 296° (WNW) 00:41:16 437.425
CUBEBUG 1 31 Jul 00:45:40 00:49:06 23° 265° (W) 00:52:36 437.445
BUGSAT 1 31 Jul 00:49:42 00:53:49 46° 99° (E) 00:57:55 437.445
NANOSAT C BR1 31 Jul 00:50:21 00:54:36 69° 285° (WNW) 00:58:50 145.865
DUCHIFAT 1 31 Jul 00:52:32 00:56:48 70° 285° (WNW) 01:01:00 145.980
VELOX 1 31 Jul 00:55:38 00:59:00 22° 266° (W) 01:02:25 145.980
ESTCUBE 1 31 Jul 00:58:34 01:00:33 13° 270° (W) 01:02:31 437.505/2401.250
TISAT 1 31 Jul 00:59:40 01:03:41 46° 72° (ENE) 01:07:45 437.305
ISS 31 Jul 01:01:01 01:03:30 20° 19° (NNE) 01:05:59 145.825
Cosmos 2499 31 Jul 01:08:28 01:12:53 16° 61° (ENE) 01:17:07 435.465 / 435.565
QB50P1 31 Jul 01:15:35 01:19:28 34° 290° (WNW) 01:23:20 145.935-145.965
GONETS M04 31 Jul 01:22:18 01:30:01 32° 70° (ENE) 01:37:42
POPSAT HIP 1 31 Jul 01:22:35 01:26:19 30° 291° (WNW) 01:30:02 437.405
JAS-2 31 Jul 01:23:33 01:28:57 73° 102° (ESE) 01:34:56 435.910
BEESAT 3 31 Jul 01:23:48 01:26:17 16° 43° (NE) 01:28:45 437.485
SWISSCUBE 31 Jul 01:24:24 01:27:57 21° 65° (ENE) 01:31:31 437.505
DX 1 31 Jul 01:27:03 01:29:14 14° 268° (W) 01:31:26 434.975-435.025
UKube-1 31 Jul 01:32:20 01:34:47 15° 268° (W) 01:37:15 .
BEESAT 2 31 Jul 01:38:48 01:40:45 13° 41° (NE) 01:42:42 435.950
AIST 1 31 Jul 01:39:41 01:42:00 14° 275° (W) 01:44:19
BEESAT 31 Jul 01:44:36 01:48:43 29° 68° (ENE) 01:52:50 436.000
QB50P2 31 Jul 01:45:26 01:48:11 17° 295° (WNW) 01:50:55 145.880/145.840
POLYITAN 1 31 Jul 01:48:05 01:50:49 17° 295° (WNW) 01:53:31 437.675
Oscar 19 31 Jul 02:01:59 02:06:56 44° 99° (E) 02:11:52 437.125/150
ITUPSAT 1 31 Jul 02:09:57 02:14:35 51° 72° (ENE) 02:19:15 437.325
Gurwin Techsat 1B 31 Jul 02:17:06 02:21:39 28° 95° (E) 02:26:09 435.225
BUGSAT 1 31 Jul 02:26:11 02:28:49 16° 295° (WNW) 02:31:25 437.445
ISS 31 Jul 02:37:01 02:40:17 86° 219° (SW) 02:43:32 145.825
TISAT 1 31 Jul 02:37:15 02:39:35 14° 268° (W) 02:41:55 437.305
Cosmos 2499 31 Jul 02:59:33 03:07:19 88° 86° (E) 03:14:32 435.465 / 435.565
BEESAT 3 31 Jul 03:00:24 03:04:18 57° 241° (WSW) 03:08:10 437.485
SWISSCUBE 31 Jul 03:00:54 03:05:27 43° 261° (W) 03:10:01 437.505
DANDE 31 Jul 03:01:36 03:03:44 13° 93° (E) 03:05:38 436.750
PCSat 31 Jul 03:08:44 03:13:41 34° 52° (NE) 03:18:35 145.827
JAS-2 31 Jul 03:10:29 03:13:35 16° 298° (WNW) 03:16:48 435.910
BEESAT 2 31 Jul 03:15:05 03:19:06 78° 239° (WSW) 03:23:05 435.950
GONETS M04 31 Jul 03:18:41 03:27:13 56° 270° (W) 03:35:46
BEESAT 31 Jul 03:22:16 03:26:25 29° 264° (W) 03:30:36 436.000
MOZHAYETS 4 31 Jul 03:24:28 03:28:44 38° 71° (ENE) 03:33:00
CUSAT 1 31 Jul 03:38:58 03:42:44 82° 277° (W) 03:45:45 437.405
AO-7 31 Jul 03:41:27 03:48:27 29° 95° (E) 03:55:22 29.400- 29.500
Oscar 19 31 Jul 03:41:56 03:45:57 23° 295° (WNW) 03:49:58 437.125/150
ITAMSAT 1 31 Jul 03:45:38 03:50:47 60° 102° (ESE) 03:55:52 435.822/435.867
ITUPSAT 1 31 Jul 03:49:38 03:52:42 17° 268° (W) 03:55:47 437.325
KKS-1 31 Jul 03:55:07 03:59:32 76° 76° (ENE) 04:04:01 437.445
Gurwin Techsat 1B 31 Jul 03:56:46 04:01:37 37° 292° (WNW) 04:06:27 435.225
AIST 2 31 Jul 04:14:38 04:18:04 24° 47° (NE) 04:21:29 435.215
RS-15 31 Jul 04:15:20 04:19:53 13° 93° (E) 04:24:29 29.354- 29.394
STARS 31 Jul 04:21:54 04:26:16 73° 75° (ENE) 04:30:42 437.465
DANDE 31 Jul 04:41:27 04:46:24 49° 280° (W) 04:50:10 436.750
PCSat 31 Jul 04:52:09 04:57:03 35° 250° (WSW) 05:01:55 145.827
Cosmos 2499 31 Jul 04:55:11 04:59:07 15° 283° (WNW) 05:02:57 435.465 / 435.565
CUBESAT XI-V 31 Jul 04:55:34 04:59:54 41° 71° (ENE) 05:04:13 437.345
MOZHAYETS 4 31 Jul 05:02:30 05:06:00 21° 266° (W) 05:09:31
O/OREOS (USA 219) 31 Jul 05:08:42 05:12:34 27° 59° (ENE) 05:16:26 437.305
HORYU 2 31 Jul 05:10:46 05:14:19 23° 95° (E) 05:17:50 437.375
ITAMSAT 1 31 Jul 05:26:21 05:29:44 18° 298° (WNW) 05:33:08 435.822/435.867
AO-7 31 Jul 05:33:28 05:41:41 63° 293° (WNW) 05:49:49 29.400- 29.500
BRITE-PL 31 Jul 05:47:59 05:51:39 20° 93° (E) 05:55:28 437.365/2234.400
AIST 2 31 Jul 05:52:48 05:56:37 35° 245° (WSW) 06:00:26 435.215
CUTE-I 31 Jul 05:58:08 06:00:24 13° 89° (E) 06:02:38 437.470
NOAA 15 31 Jul 06:02:31 06:06:14 19° 93° (E) 06:09:55 137.62
LilacSat-2 31 Jul 06:07:59 06:09:20 11° 90° (E) 06:10:39 437.200
RS-15 31 Jul 06:18:27 06:29:40 66° 115° (ESE) 06:41:33 29.354- 29.394
GOMX 1 31 Jul 06:27:22 06:31:30 23° 94° (E) 06:35:43 467.674
STRAND 1 31 Jul 06:34:07 06:38:33 30° 67° (ENE) 06:43:01 437.568
CUBESAT XI-V 31 Jul 06:34:10 06:37:26 19° 267° (W) 06:40:43 437.345
HORYU 2 31 Jul 06:46:54 06:50:55 33° 291° (WNW) 06:54:53 437.375
O/OREOS (USA 219) 31 Jul 06:47:58 06:51:57 30° 256° (WSW) 06:55:56 437.305
Cosmos 2491 31 Jul 06:52:42 06:58:15 18° 61° (ENE) 07:03:47 435.465 / 435.565
SO-50 31 Jul 07:09:09 07:13:55 55° 118° (ESE) 07:18:40 436.795
NOAA 18 31 Jul 07:09:31 07:14:59 58° 102° (ESE) 07:20:24 137.9125
Cubesat XI-IV 31 Jul 07:13:27 07:18:47 66° 102° (ESE) 07:24:04 437.490
BRITE-PL 31 Jul 07:25:29 07:30:17 50° 287° (WNW) 07:35:26 437.365/2234.400
AO-7 31 Jul 07:28:40 07:32:48 15° 314° (NW) 07:36:57 29.400- 29.500
PRISM 31 Jul 07:30:00 07:31:19 11° 62° (ENE) 07:32:39 437.425
DOVE 4 31 Jul 07:34:59 07:40:04 48° 99° (E) 07:45:10 437.250
CUTE-I 31 Jul 07:35:40 07:41:01 78° 286° (WNW) 07:46:20 437.470
LilacSat-2 31 Jul 07:40:11 07:43:54 48° 287° (WNW) 07:47:35 437.200
NOAA 15 31 Jul 07:41:11 07:46:18 53° 289° (WNW) 07:51:25 137.62
SEEDS 31 Jul 08:01:35 08:02:58 11° 90° (E) 08:04:21 437.485
GOMX 1 31 Jul 08:04:45 08:09:40 45° 288° (WNW) 08:14:48 467.674
HO-68 31 Jul 08:07:41 08:13:52 30° 95° (E) 08:19:59 435.675
STRAND 1 31 Jul 08:13:03 08:17:38 32° 263° (W) 08:22:15 437.568
YUBILEINY 31 Jul 08:19:41 08:26:22 25° 81° (E) 08:33:05 435.215
AAUSAT CUBESAT 2 31 Jul 08:28:13 08:30:01 12° 91° (E) 08:31:47 437.432
RS-15 31 Jul 08:31:58 08:42:52 43° 320° (NW) 08:54:22 29.354- 29.394
Cosmos 2491 31 Jul 08:47:40 08:56:29 85° 82° (E) 09:05:18 435.465 / 435.565
SO-50 31 Jul 08:50:54 08:54:43 22° 316° (NW) 08:58:32 436.795
CINEMA 3 31 Jul 08:50:57 08:56:01 81° 103° (ESE) 09:00:57 145.822/145.860
NOAA 18 31 Jul 08:51:12 08:55:11 21° 299° (WNW) 08:59:07 137.9125
CANX-2 31 Jul 08:51:37 08:55:51 74° 103° (ESE) 09:00:02 2200.000
Cubesat XI-IV 31 Jul 08:54:56 08:58:18 17° 299° (WNW) 09:01:39 437.490
UWE-3 31 Jul 08:56:46 08:59:52 18° 91° (E) 09:02:54 435.000/436.395/437.385
ANTELSAT 31 Jul 09:00:42 09:02:18 12° 61° (ENE) 09:03:55 437.575/2403.000
PRISM 31 Jul 09:02:05 09:06:06 62° 258° (WSW) 09:10:09 437.425
CUTE 1.7 + AOD 2 31 Jul 09:04:07 09:08:21 89° 102° (ESE) 09:12:33 437.475
Cosmos 2504 31 Jul 09:07:35 09:12:37 17° 77° (ENE) 09:17:37 435.465 / 435.565
DOVE 4 31 Jul 09:13:23 09:17:23 23° 294° (WNW) 09:21:27 437.250
CUTE-I 31 Jul 09:18:53 09:20:09 11° 303° (WNW) 09:21:25 437.470
Oscar 11 31 Jul 09:19:23 09:22:32 20° 93° (E) 09:25:40 145.826/435.025
CUBEBUG 2 31 Jul 09:27:31 09:32:09 57° 100° (E) 09:36:37 437.445
SEEDS 31 Jul 09:34:56 09:39:02 57° 285° (WNW) 09:43:06 437.485
COMPASS 1 31 Jul 09:37:59 09:42:07 76° 284° (WNW) 09:46:14 437.405
TIGRISAT 31 Jul 09:38:22 09:42:13 26° 67° (ENE) 09:46:07 435.000
DELFI C3 31 Jul 09:46:50 09:49:15 16° 92° (E) 09:51:39 145.870
HO-68 31 Jul 09:54:53 10:01:50 52° 293° (WNW) 10:08:42 435.675
UNISAT 6 31 Jul 09:55:42 10:00:04 41° 71° (ENE) 10:04:29 437.425
AAUSAT CUBESAT 2 31 Jul 10:01:47 10:05:47 50° 287° (WNW) 10:09:45 437.432
YUBILEINY 31 Jul 10:13:34 10:22:18 69° 280° (W) 10:31:10 435.215
FUNcube-1 31 Jul 10:18:26 10:22:55 84° 102° (ESE) 10:27:14 145.935
ZACube-1 31 Jul 10:22:01 10:26:30 84° 282° (WNW) 10:30:50 437.345
CINEMA 3 31 Jul 10:30:10 10:32:25 13° 299° (WNW) 10:34:39 145.822/145.860
CANX-2 31 Jul 10:30:37 10:31:04 10° 298° (WNW) 10:31:31 2200.000
UWE-3 31 Jul 10:32:13 10:36:32 42° 288° (WNW) 10:40:44 435.000/436.395/437.385
QB50P1 31 Jul 10:33:26 10:36:01 16° 64° (ENE) 10:38:36 145.935-145.965
ANTELSAT 31 Jul 10:33:38 10:38:18 81° 257° (WSW) 10:43:03 437.575/2403.000
POPSAT HIP 1 31 Jul 10:39:57 10:42:52 18° 66° (ENE) 10:45:49 437.405
Cosmos 2491 31 Jul 10:46:31 10:52:08 19° 282° (WNW) 10:57:46 435.465 / 435.565
RS-15 31 Jul 10:50:57 10:59:54 23° 353° (N) 11:09:03 29.354- 29.394
Oscar 11 31 Jul 10:54:50 10:58:46 35° 289° (WNW) 11:02:39 145.826/435.025
Cosmos 2504 31 Jul 10:55:46 11:04:40 83° 95° (E) 11:13:28 435.465 / 435.565
HUMSAT D 31 Jul 10:55:56 10:59:59 47° 99° (E) 11:03:57 437.325/437.525
M-CUBED/EXP-1 PRIME 31 Jul 10:58:07 11:02:45 51° 104° (ESE) 11:07:15 437.505
QB50P2 31 Jul 11:01:04 11:04:53 32° 70° (ENE) 11:08:42 145.880/145.840
POLYITAN 1 31 Jul 11:03:40 11:07:29 33° 70° (ENE) 11:11:22 437.675
CUBEBUG 2 31 Jul 11:05:31 11:08:14 15° 297° (WNW) 11:10:55 437.445
ESTCUBE 1 31 Jul 11:13:25 11:15:21 12° 90° (E) 11:17:16 437.505/2401.250
TIGRISAT 31 Jul 11:14:35 11:18:45 32° 264° (W) 11:22:59 435.000
AUBIESAT-1 31 Jul 11:20:07 11:24:47 72° 107° (ESE) 11:29:19 437.475
DELFI C3 31 Jul 11:20:36 11:24:15 37° 288° (WNW) 11:27:52 145.870
UNISAT 6 31 Jul 11:33:29 11:36:55 20° 267° (W) 11:40:24 437.425
JAS-2 31 Jul 11:36:50 11:41:42 29° 67° (ENE) 11:46:16 435.910
BUGSAT 1 31 Jul 11:39:22 11:42:59 31° 70° (ENE) 11:46:41 437.445
NANOSAT C BR1 31 Jul 11:41:50 11:46:05 84° 77° (ENE) 11:50:22 145.865
DUCHIFAT 1 31 Jul 11:43:47 11:48:00 82° 77° (ENE) 11:52:17 145.980
HO-68 31 Jul 11:47:32 11:47:54 10° 313° (NW) 11:48:17 435.675
AISAT 31 Jul 11:54:17 11:57:40 21° 94° (E) 12:01:03 437.250
SPROUT 31 Jul 12:07:18 12:09:11 13° 90° (E) 12:11:04 437.525
QB50P1 31 Jul 12:07:18 12:11:24 47° 261° (W) 12:15:32 145.935-145.965
POPSAT HIP 1 31 Jul 12:14:21 12:18:21 40° 262° (W) 12:22:24 437.405
YUBILEINY 31 Jul 12:16:50 12:20:58 14° 303° (WNW) 12:25:09 435.215
AIST 1 31 Jul 12:30:10 12:33:46 27° 89° (E) 12:37:22
HUMSAT D 31 Jul 12:32:52 12:35:11 15° 296° (WNW) 12:37:29 437.325/437.525
CUBEBUG 1 31 Jul 12:33:05 12:37:29 62° 101° (ESE) 12:41:52 437.445
M-CUBED/EXP-1 PRIME 31 Jul 12:33:30 12:36:50 19° 301° (WNW) 12:40:09 437.505
QB50P2 31 Jul 12:37:27 12:40:43 21° 266° (W) 12:44:01 145.880/145.840
POLYITAN 1 31 Jul 12:40:06 12:43:21 21° 266° (W) 12:46:37 437.675
AO-85 31 Jul 12:43:57 12:49:10 53° 118° (ESE) 12:54:13 145.980
VELOX 1 31 Jul 12:44:24 12:48:52 70° 103° (ESE) 12:53:19 145.980
ESTCUBE 1 31 Jul 12:48:06 12:52:32 60° 286° (WNW) 12:56:57 437.505/2401.250
Cosmos 2504 31 Jul 12:52:30 12:59:02 22° 295° (WNW) 13:05:33 435.465 / 435.565
AUBIESAT-1 31 Jul 12:56:10 12:58:37 14° 303° (WNW) 13:01:03 437.475
50 SAT 31 Jul 12:59:44 13:03:18 62° 284° (WNW) 13:06:50 437.505
RS-15 31 Jul 13:07:24 13:17:57 31° 28° (NNE) 13:28:29 29.354- 29.394
DX 1 31 Jul 13:12:37 13:17:01 81° 284° (WNW) 13:21:23 434.975-435.025
BUGSAT 1 31 Jul 13:15:16 13:18:24 21° 266° (W) 13:21:34 437.445
UKube-1 31 Jul 13:17:10 13:21:32 90° 94° (E) 13:25:51 .
Oscar 19 31 Jul 13:18:37 13:23:39 64° 73° (ENE) 13:28:44 437.125/150
JAS-2 31 Jul 13:21:22 13:26:43 36° 262° (W) 13:31:40 435.910
ITAMSAT 1 31 Jul 13:27:51 13:29:54 12° 58° (ENE) 13:31:57 435.822/435.867
AISAT 31 Jul 13:30:09 13:34:14 36° 290° (WNW) 13:38:18 437.250
Gurwin Techsat 1B 31 Jul 13:37:53 13:42:53 44° 70° (ENE) 13:47:55 435.225
SPROUT 31 Jul 13:41:13 13:45:28 56° 286° (WNW) 13:49:41 437.525
Cosmos 2499 31 Jul 13:46:43 13:50:44 14° 76° (ENE) 13:54:41 435.465 / 435.565
AIST 1 31 Jul 14:07:55 14:11:19 23° 286° (WNW) 14:14:45
CUSAT 1 31 Jul 14:09:51 14:13:05 48° 80° (E) 14:17:10 437.405
CUBEBUG 1 31 Jul 14:11:09 14:13:14 13° 297° (WNW) 14:15:20 437.445
ITUPSAT 1 31 Jul 14:12:22 14:14:32 13° 90° (E) 14:16:42 437.325
TISAT 1 31 Jul 14:18:53 14:23:10 87° 99° (E) 14:27:26 437.305
VELOX 1 31 Jul 14:22:59 14:24:44 12° 298° (WNW) 14:26:31 145.980
GONETS M04 31 Jul 14:23:36 14:31:14 36° 85° (E) 14:38:55
AO-85 31 Jul 14:25:32 14:29:56 26° 314° (NW) 14:34:09 145.980
AO-7 31 Jul 14:40:07 14:47:45 41° 61° (ENE) 14:55:23 29.400- 29.500
PHONESAT 2.4 31 Jul 14:47:16 14:49:31 19° 152° (SSE) 14:51:46 2401.200-2431.200
Oscar 19 31 Jul 15:00:33 15:03:25 15° 269° (W) 15:06:17 437.125/150
SWISSCUBE 31 Jul 15:00:54 15:05:30 47° 100° (E) 15:10:04 437.505
ITAMSAT 1 31 Jul 15:03:21 15:08:35 90° 64° (ENE) 15:13:51 435.822/435.867
DANDE 31 Jul 15:18:44 15:21:28 75° 261° (W) 15:24:42 436.750
Gurwin Techsat 1B 31 Jul 15:18:49 15:23:00 23° 266° (W) 15:27:13 435.225
RS-15 31 Jul 15:20:19 15:32:46 79° 56° (NE) 15:45:01 29.354- 29.394
BEESAT 31 Jul 15:21:36 15:26:22 70° 101° (ESE) 15:31:06 436.000
Cosmos 2499 31 Jul 15:33:35 15:42:25 75° 94° (E) 15:50:57 435.465 / 435.565
SO-50 31 Jul 15:40:55 15:45:24 46° 52° (NE) 15:49:45 436.795
KKS-1 31 Jul 15:47:36 15:50:07 15° 92° (E) 15:52:38 437.445
ITUPSAT 1 31 Jul 15:48:05 15:52:48 65° 287° (WNW) 15:57:30 437.325
HORYU 2 31 Jul 16:08:48 16:12:15 22° 66° (ENE) 16:15:43 437.375
STARS 31 Jul 16:13:06 16:15:16 13° 91° (E) 16:17:27 437.465
GONETS M04 31 Jul 16:19:28 16:27:45 49° 285° (WNW) 16:36:11
PHONESAT 2.4 31 Jul 16:22:38 16:25:40 61° 168° (SSE) 16:28:43 2401.200-2431.200
AO-7 31 Jul 16:32:24 16:40:21 47° 259° (W) 16:48:23 29.400- 29.500
SWISSCUBE 31 Jul 16:39:37 16:42:56 19° 296° (WNW) 16:46:14 437.505
ITAMSAT 1 31 Jul 16:48:03 16:48:44 10° 272° (W) 16:49:24 435.822/435.867
BEESAT 3 31 Jul 16:51:19 16:54:24 22° 113° (ESE) 16:57:30 437.485
CUBESAT XI-V 31 Jul 16:55:33 16:55:43 10° 89° (E) 16:55:53 437.345
MOZHAYETS 4 31 Jul 16:56:09 17:00:45 89° 284° (WNW) 17:05:17
NOAA 18 31 Jul 16:58:02 17:01:16 16° 59° (ENE) 17:04:30 137.9125
Cubesat XI-IV 31 Jul 16:58:23 17:01:17 15° 60° (ENE) 17:04:12 437.490
BRITE-PL 31 Jul 17:00:09 17:02:53 17° 65° (ENE) 17:05:39 437.365/2234.400
BEESAT 31 Jul 17:01:14 17:03:33 14° 299° (WNW) 17:05:52 436.000
